This demonstration page uses our WeatherBlox Daily Observations layout. Learn more.

Left ArrowRight Arrow

36.17497, -115.13722

Hourly Observations for March 18, 2016

Temp ( °F °C ) Dew Point ( °F °C ) Humidity (%) Winds ( mph kmh ) Pressure ( in mb ) Visibility ( mi km ) Precip ( " mm )
12:53 am 00:53 Clear 65 18.3 23 -5 20 20 NNW 8 13 29.87 1011 10 16.0934 0 0
1:53 am 01:53 Clear 62 16.7 23 -5 22 22 N 10 17 29.86 1011 10 16.0934 0 0
2:53 am 02:53 Clear 64 17.8 23 -5 21 21 N 12 19 29.85 1011 10 16.0934 0 0
3:53 am 03:53 Clear 62 16.7 23 -5 22 22 NW 5 7 29.85 1011 10 16.0934 0 0
4:53 am 04:53 Clear 61 16.1 23 -5 23 23 Calm 29.88 1012 10 16.0934 0 0
5:53 am 05:53 Clear 59 15 22 -5.6 24 24 NNE 3 6 29.9 1013 10 16.0934 0 0
6:53 am 06:53 Sunny 59 15 21 -6.1 23 23 NNW 10 17 29.92 1013 10 16.0934 0 0
7:53 am 07:53 Sunny 62 16.7 21 -6.1 21 21 NW 10 17 29.96 1014 10 16.0934 0 0
8:53 am 08:53 Sunny 66 18.9 21 -6.1 18 18 N 7 11 29.96 1015 10 16.0934 0 0
9:53 am 09:53 Sunny 68 20 20 -6.7 16 16 SE 8 13 29.99 1016 10 16.0934 0 0
10:53 am 10:53 Sunny 71 21.7 20 -6.7 14 14 SSE 8 13 29.99 1016 10 16.0934 0 0
11:53 am 11:53 Sunny 74 23.3 20 -6.7 13 13 ESE 8 13 29.98 1015 10 16.0934 0 0
12:53 pm 12:53 Sunny 76 24.4 20 -6.7 12 12 ESE 8 13 29.97 1015 10 16.0934 0 0
1:53 pm 13:53 Sunny 78 25.6 20 -6.7 11 11 NE 6 9 29.95 1014 10 16.0934 0 0
2:53 pm 14:53 Sunny 78 25.6 20 -6.7 11 11 VRB 5 7 29.92 1013 10 16.0934 0 0
3:53 pm 15:53 Sunny 78 25.6 20 -6.7 11 11 SSW 5 7 29.9 1013 10 16.0934 0 0
4:53 pm 16:53 Sunny 79 26.1 20 -6.7 11 11 Calm 29.89 1012 10 16.0934 0 0
5:53 pm 17:53 Sunny 78 25.6 19 -7.2 11 11 ESE 9 15 29.9 1013 10 16.0934 0 0
6:53 pm 18:53 Clear 75 23.9 18 -7.8 11 11 ESE 6 9 29.91 1013 10 16.0934 0 0
7:53 pm 19:53 Clear 73 22.8 19 -7.2 13 13 E 5 7 29.93 1014 10 16.0934 0 0
8:53 pm 20:53 Clear 70 21 21 -6 16 16 Calm 29.85 1011 10 16.0934 0 0
9:53 pm 21:53 Clear 67 19.4 26 -3.3 21 21 WNW 6 9 29.96 1015 10 16.0934 0 0
10:53 pm 22:53 Clear 64 17.8 25 -3.9 23 23 NW 5 7 29.96 1015 10 16.0934 0 0
11:53 pm 23:53 Clear 61 16.1 24 -4.4 24 24 NNW 6 9 29.96 1015 10 16.0934 0 0

Powered by AerisWeather